Погода в Поколбине

Австралия     32°48′21″S   151°16′45″E
темп.,
°C
ветер,
м/с
пор.,
м/с
влажн.,
%
обл.,
%
осадки,
мм/ч
давл.,
гПа
погр.,
м
12 мая, ср
ср1201:00+11юз118194 0.0 101917
04:00+11юз118599 0.0 101928
07:00+11зюз129085 0.0 102050
10:00+18ююв12665 0.0 1020594
13:00+19юв237130 0.6 1017896
16:00+17ю248542 1.8 1017217
19:00+13юз119750 0.1 101831
22:00+13юз229835 0.2 101759
13 мая, чт
чт1301:00+13юз129837 0.0 101645
04:00+13з129795 0.0 101454
07:00+12з119813 0.0 101548
10:00+17сз24760 0.0 1014562
13:00+21сз35480 0.0 10111673
16:00+19ссз36570 0.0 1009366
19:00+13з23730 0.0 101170
22:00+12з26783 0.0 1012151
14 мая, пт
пт1401:00+9зсз23850 0.0 101257
04:00+9зсз25850 0.0 101299
07:00+8зсз26870 0.0 1014127
10:00+16з48480 0.0 10141087
13:00+18зюз46280 0.0 10131575
16:00+16зюз38370 0.0 1013594
19:00+12зюз311510 0.0 1016410
22:00+9з311614 0.0 1018549
15 мая, сб
сб1501:00+6зсз25771 0.0 1017112
04:00+5сз37825 0.0 1017179
07:00+5сз38855 0.0 1017233
10:00+13зсз511510 0.0 10171171
13:00+18з510365 0.0 10142173
16:00+14зюз59440 0.0 10171557
19:00+9з25590 0.0 1021109
22:00+6зюз23690 0.0 102358
16 мая, вс
вс1601:00+4зюз11720 0.0 102325
04:00+3з11760 0.0 102421
07:00+3з11770 0.0 102620
10:00+12сз11440 0.0 1026507
13:00+15ссз22320 0.0 10231114
16:00+13с23480 0.0 1022129
19:00+7сз11620 0.0 102310
22:00+5зсз11680 0.0 102413